Weather History for Guatemala Aeropuertola Aurora, Guatemala

Change the Weather History Date:

Thursday, July 25, 2013

  Actual Average Record
Temperature  
Mean Temperature 70 °F -  
Max Temperature 77 °F 75 °F - ()
Min Temperature 62 °F 60 °F - ()
Cooling Degree Days 4    
Growing Degree Days 20 (Base 50)    
Moisture  
Dew Point 59 °F    
Average Humidity 73    
Maximum Humidity 94    
Minimum Humidity 47    
Precipitation  
Precipitation 0.00 in - - ()
Sea Level Pressure  
Sea Level Pressure 30.29 in    
Wind  
Wind Speed 13 mph ()    
Max Wind Speed 21 mph    
Max Gust Speed -    
Visibility 6.2 miles    
Events      
T = Trace of Precipitation, MM = Missing Value Source: Averaged Metar Reports

Daily Weather History Graph

Daily Weather History Graph

Search for Another Location

Airport:

Trip Planner

Search our weather history database for the weather conditions in past years. The results will help you decide how hot, cold, wet, or windy it might be!

Date:

Astronomy

Jul. 25, 2013 Rise Set
Actual Time 5:43 AM CST 6:33 PM CST
Civil Twilight 5:20 AM CST 6:56 PM CST
Nautical Twilight 4:53 AM CST 7:23 PM CST
Astronomical Twilight 4:26 AM CST 7:50 PM CST
Moon 9:01 PM CST (7/25) 8:31 AM CST (7/25)
Length of Visible Light 13h 35m
Length of Day
12h 49m
Waning Gibbous, 88% of the Moon is Illuminated
Jul 25
Waning Gibbous
Jul 29
Last Quarter
Aug 6
New
Aug 14
First Quarter
Aug 20
Full

Hourly Weather History & Observations

Time (CST) Temp. Dew Point Humidity Pressure Visibility Wind Dir Wind Speed Gust Speed Precip Events Conditions
12:00 AM 64.4 °F 60.8 °F 88% 30.27 in 6.2 mi North 11.5 mph - N/A   Scattered Clouds
1:00 AM 64.4 °F 60.8 °F 88% 30.27 in 6.2 mi North 11.5 mph - N/A   Scattered Clouds
2:00 AM 62.6 °F 60.8 °F 94% 30.24 in 6.2 mi North 11.5 mph - N/A   Scattered Clouds
3:00 AM 64.4 °F 60.8 °F 88% 30.24 in 6.2 mi North 13.8 mph - N/A   Mostly Cloudy
4:00 AM 62.6 °F 60.8 °F 94% 30.24 in 6.2 mi North 13.8 mph - N/A   Mostly Cloudy
5:00 AM 62.6 °F 60.8 °F 94% 30.24 in 6.2 mi North 13.8 mph - N/A   Mostly Cloudy
6:00 AM 62.6 °F 60.8 °F 94% 30.27 in 6.2 mi North 11.5 mph - N/A   Mostly Cloudy
7:00 AM 64.4 °F 60.8 °F 88% 30.27 in 6.2 mi North 9.2 mph - N/A   Mostly Cloudy
8:00 AM 68.0 °F 59.0 °F 73% 30.30 in 6.2 mi NNW 18.4 mph - N/A   Mostly Cloudy
9:00 AM 68.0 °F 59.0 °F 73% 30.30 in 6.2 mi NNE 18.4 mph - N/A   Mostly Cloudy
10:00 AM 71.6 °F 59.0 °F 64% 30.30 in 6.2 mi North 20.7 mph - N/A   Scattered Clouds
11:00 AM 75.2 °F 57.2 °F 53% 30.30 in 6.2 mi North 20.7 mph - N/A   Scattered Clouds
12:00 PM 75.2 °F 57.2 °F 53% 30.33 in 6.2 mi North 20.7 mph - N/A   Scattered Clouds
1:00 PM 77.0 °F 55.4 °F 47% 30.30 in 6.2 mi North 18.4 mph - N/A   Scattered Clouds
2:00 PM 77.0 °F 59.0 °F 54% 30.27 in 6.2 mi North 13.8 mph - N/A   Partly Cloudy
3:00 PM 77.0 °F 59.0 °F 54% 30.27 in 6.2 mi North 16.1 mph - N/A   Scattered Clouds
4:00 PM 77.0 °F 59.0 °F 54% 30.27 in 6.2 mi North 18.4 mph - N/A   Scattered Clouds
5:00 PM 75.2 °F 59.0 °F 57% 30.27 in 6.2 mi North 13.8 mph - N/A   Partly Cloudy
6:00 PM 73.4 °F 57.2 °F 57% 30.30 in 6.2 mi NNE 16.1 mph - N/A   Partly Cloudy
7:00 PM 71.6 °F 59.0 °F 64% 30.33 in 6.2 mi North 16.1 mph - N/A   Partly Cloudy
8:00 PM 68.0 °F 62.6 °F 83% 30.33 in 6.2 mi NNE 18.4 mph - N/A   Partly Cloudy
9:00 PM 68.0 °F 59.0 °F 73% 30.36 in 6.2 mi NNE 18.4 mph - N/A   Partly Cloudy
10:00 PM 66.2 °F 59.0 °F 78% 30.36 in 6.2 mi NNE 20.7 mph - N/A   Partly Cloudy
11:00 PM 64.4 °F 60.8 °F 88% 30.39 in 6.2 mi NNE 18.4 mph - N/A   Scattered Clouds